Location: Moonridge Observatory
(39.2268°N, 77.7914°W)
Time: 21:04:56
(UTC-04:00)

CZ-2C R/B - Visible Passes

Search period start: 23 July 2016 00:00
Search period end: 02 August 2016 00:00
Orbit: 703 x 909 km, 98.2° (Epoch: 22 July)

Date Brightness Start Highest point End Pass type
(mag) Time Alt. Az. Time Alt. Az. Time Alt. Az.
23 Jul 4.2 01:03:41 35° ENE 01:03:41 35° ENE 01:07:46 10° N visible
23 Jul 4.7 02:44:45 22° WNW 02:44:45 22° WNW 02:47:17 10° NW visible
24 Jul 4.8 00:38:43 21° ENE 00:38:43 21° ENE 00:42:22 10° NNE visible
24 Jul 4.1 02:19:47 34° WNW 02:19:47 34° WNW 02:23:02 10° NNW visible
25 Jul 5.3 00:13:45 13° ENE 00:14:10 13° ENE 00:16:16 10° NE visible
25 Jul 3.7 01:54:49 49° NNW 01:54:49 49° NNW 01:58:27 10° NNW visible
26 Jul 3.8 01:29:51 49° NNE 01:29:51 49° NNE 01:33:36 10° N visible
26 Jul 5.3 03:10:56 11° WNW 03:10:56 11° WNW 03:11:27 10° WNW visible
27 Jul 4.3 01:04:53 34° NE 01:04:53 34° NE 01:08:32 10° N visible
27 Jul 4.8 02:45:58 19° WNW 02:45:58 19° WNW 02:47:57 10° NW visible
28 Jul 4.8 00:39:55 21° ENE 00:39:55 21° ENE 00:43:09 10° NNE visible
28 Jul 4.4 02:20:59 29° NW 02:20:59 29° NW 02:23:44 10° NNW visible
29 Jul 5.3 00:14:57 13° ENE 00:14:58 13° ENE 00:17:03 10° NE visible
29 Jul 4.0 01:56:01 40° NNW 01:56:01 40° NNW 01:59:10 10° NNW visible
30 Jul 4.0 01:31:03 42° N 01:31:03 42° N 01:34:21 10° N visible
31 Jul 4.4 01:06:04 32° NE 01:06:04 32° NE 01:09:17 10° N visible
31 Jul 5.0 02:47:09 16° WNW 02:47:09 16° WNW 02:48:37 10° NW visible
01 Aug 4.9 00:41:06 21° NE 00:41:06 21° NE 00:43:55 10° NNE visible
01 Aug 4.6 02:22:10 25° NW 02:22:10 25° NW 02:24:26 10° NNW visible
